Regional Weather Roundup
Issued by NWS State College, PA

Home | Current Version | Previous Version | Graphics & Text | Print | Product List | Glossary Off
Versions: 1 2 3 4 5 6 7 8 9 10 11 12 13 14 15 16 17 18 19 20 21 22 23 24 25 26 27 28 29 30 31 32 33 34 35 36 37 38 39 40 41 42 43 44 45 46 47 48 49 50

749
ASUS41 KCTP 241103
RWRCTP

REGIONAL WEATHER ROUNDUP
NATIONAL WEATHER SERVICE STATE COLLEGE PA
600 AM EST FRI NOV 24 2017

Note: "fair" indicates few or no clouds below 12,000 feet with no
significant weather and/or obstructions to visibility.

* = STATION THAT DOES NOT REPORT PRECIPITATION /E.G. RAIN...SNOW...ETC/
    THUNDER OR FOG.

PAZ002>004-007>009-013>016-020>023-029>032-241200-
WESTERN PENNSYLVANIA

CITY           SKY/WX    TMP DP  RH WIND       PRES   REMARKS
ERIE           CLEAR     33  23  66 S12       29.95S
MEADVILLE      CLEAR     29  22  75 S6        29.95S
FRANKLIN*      CLEAR     26  21  81 S6        29.97S
NEW CASTLE     FAIR      29  24  82 CALM      29.99F
BEAVER COUNTY  NOT AVBL
BUTLER*        CLOUDY    28  22  78 CALM      30.00R
PITTSBURGH INT CLOUDY    28  22  78 CALM      29.99R
PITTSBURGH     CLEAR     30  20  66 S10       29.98S
INDIANA*       CLEAR     25  23  93 CALM      30.04R
LATROBE        CLEAR     25  23  93 MISG      30.01S
WASHINGTON CO* CLOUDY    26  21  81 CALM      30.02F
$$

PAZ004>006-010>012-017>019-024>028-033>037-041-042-045-046-049>053-241200-
CENTRAL PENNSYLVANIA

CITY           SKY/WX    TMP DP  RH WIND       PRES   REMARKS
BRADFORD       CLEAR     27  21  78 CALM      29.93S
DUBOIS         CLOUDY    27  19  72 S3        29.96S
CLEARFIELD     CLOUDY    26  22  84 CALM      30.00R
JOHNSTOWN      CLOUDY    31  20  63 SW9       29.95S
ALTOONA        CLEAR     30  21  69 S5        30.00R
STATE COLLEGE  CLEAR     32  21  64 CALM      30.00S
WILLIAMSPORT   CLEAR     29  24  82 CALM      30.03R
SELINSGROVE    CLOUDY    24  23  96 CALM      30.06R
FT INDIANTOWN  CLOUDY    21  21  99 CALM      30.04S
CAPITAL CITY   CLOUDY    26  21  81 SW3       30.06S
HARRISBURG     CLOUDY    28  25  88 CALM      30.05S
YORK           CLOUDY    22  20  92 CALM      30.04F
$$

PAZ038>040-043-044-047-048-054-055-060>062-067>071-241200-
EASTERN PENNSYLVANIA

CITY           SKY/WX    TMP DP  RH WIND       PRES   REMARKS
SCRANTON       CLEAR     29  23  78 CALM      30.01R
MOUNT POCONO   CLOUDY    27  20  75 NW7       29.95S
ALLENTOWN      CLOUDY    24  18  77 CALM      30.05S
QUAKERTOWN*    CLOUDY    23  19  86 CALM      30.05S
READING        CLOUDY    25  24  96 CALM      30.04F
LANCASTER      CLOUDY    26  24  92 CALM      30.05F
COATESVILLE    CLOUDY    28  21  74 W6        30.05F
POTTSTOWN      CLOUDY    23  20  88 CALM      30.07S
BLUE BELL      CLOUDY    27  25  93 CALM      30.07S
DOYLESTOWN     CLOUDY    28  21  75 CALM      30.04R
WILLOW GROVE   NOT AVBL
NORTH PHILA    CLEAR     30  23  75 CALM      30.08R
PHILADELPHIA   CLEAR     32  27  81 SW5       30.08S
$$




USA.gov is the U.S. government's official web portal to all federal, state and local government web resources and services.